This is the latest recevied weather packets stored in our database for station/object VK6DUG. If no packets are shown the sender has not sent any weather packets the latest 10 day(s).
| Time | Temp. | Humidity | Pressure | Rain* | Wind** | Luminosity | Snow |
|---|---|---|---|---|---|---|---|
| 1777343426 | 18.33° C | 83% | 1021.6 hPa | 0 mm | - | 260 W/m² | - |
| 1777342823 | 17.78° C | 83% | 1021.4 hPa | 0 mm | - | 255 W/m² | - |
| 1777342220 | 17.78° C | 84% | 1021.7 hPa | 0 mm | - | 254 W/m² | - |
| 1777341618 | 17.22° C | 84% | 1021.6 hPa | 0 mm | - | 279 W/m² | - |
| 1777341035 | 17.22° C | 85% | 1021.6 hPa | 0 mm | - | 265 W/m² | - |
| 1777340432 | 16.67° C | 86% | 1021.6 hPa | 0 mm | - | 262 W/m² | - |
| 1777339829 | 16.67° C | 86% | 1021.6 hPa | 0 mm | - | 268 W/m² | - |
| 1777339227 | 16.67° C | 87% | 1021.5 hPa | 0 mm | - | 274 W/m² | - |
| 1777338625 | 16.11° C | 89% | 1021.5 hPa | 0 mm | - | 244 W/m² | - |
| 1777338023 | 15.56° C | 90% | 1021.3 hPa | 0 mm | - | 284 W/m² | - |
| 1777337420 | 15.56° C | 91% | 1021.3 hPa | 0 mm | - | 199 W/m² | - |
| 1777336817 | 15° C | 92% | 1021.1 hPa | 0 mm | - | 187 W/m² | - |
| 1777336234 | 14.44° C | 92% | 1021.3 hPa | 0 mm | - | 129 W/m² | - |
| 1777335632 | 14.44° C | 93% | 1021.2 hPa | 0 mm | - | 84 W/m² | - |
| 1777335030 | 14.44° C | 93% | 1021.2 hPa | 0 mm | - | 69 W/m² | - |
| 1777334427 | 14.44° C | 93% | 1021.1 hPa | 0 mm | - | 59 W/m² | - |
| 1777333824 | 14.44° C | 93% | 1020.9 hPa | 0 mm | - | 50 W/m² | - |
| 1777333221 | 14.44° C | 93% | 1020.8 hPa | 0 mm | - | 36 W/m² | - |
| 1777332619 | 14.44° C | 93% | 1020.8 hPa | 0 mm | - | 23 W/m² | - |
| 1777332016 | 14.44° C | 93% | 1020.9 hPa | 0 mm | - | 14 W/m² | - |
| 1777331434 | 14.44° C | 94% | 1020.8 hPa | 0 mm | - | 9 W/m² | - |
| 1777330830 | 14.44° C | 94% | 1020.7 hPa | 0 mm | - | 6 W/m² | - |
| 1777330226 | 14.44° C | 94% | 1020.6 hPa | 0 mm | - | 2 W/m² | - |
| 1777329623 | 14.44° C | 95% | 1020.5 hPa | 0 mm | - | 0 W/m² | - |
| 1777329020 | 13.89° C | 95% | 1020.5 hPa | 0 mm | - | 0 W/m² | - |
* Rain latest hour (hover to see other rain measurements)
** Current wind speed in m/s (hover to see current wind gust speed)